Regional Weather Roundup
Issued by NWS

Home | Current Version | Previous Version | Text Only | Print | Product List | Glossary Off
Versions: 1 2 3 4 5 6 7 8 9 10 11 12 13 14 15 16 17 18 19 20 21 22 23 24 25 26 27

000
ASUS45 KCYS 261910
RWRWY

WYOMING REGIONAL WEATHER ROUNDUP
NATIONAL WEATHER SERVICE CHEYENNE WY
100 PM MDT WED JUL 26 2017

NOTE:  "FAIR" INDICATES FEW OR NO CLOUDS BELOW 12,000 FEET
WITH NO SIGNIFICANT WEATHER AND/OR OBSTRUCTIONS TO VISIBILITY.

WYZ001-262000-
YELLOWSTONE NATIONAL PARK

CITY           SKY/WX    TMP DP  RH WIND       PRES   REMARKS
LK YELLOWSTONE   N/A     63  51  65 SE5       30.42F
W YELLOWSTONE  NOT AVBL

$$
WYZ002>013-054>058-071-098>099-262000-
NORTHERN WYOMING

CITY           SKY/WX    TMP DP  RH WIND       PRES   REMARKS
JACKSON        NOT AVBL
CODY           FAIR      79  47  32 NE8       30.23F
GREYBULL       FAIR      83  52  34 E5        30.14F
WORLAND        FAIR      82  53  36 W7        30.15F
SHERIDAN       FAIR      84  53  34 SE10G18   30.16F
BUFFALO        FAIR      80  53  39 S16G24    30.24F
GILLETTE       PTSUNNY   79  54  41 S9        30.22S
HULETT         MOCLDY    79  55  44 S6        30.24S
NEWCASTLE      FAIR      77  50  38 CALM      30.24F

$$
WYZ014>020-022>026-101>103-262000-
CENTRAL WYOMING

CITY           SKY/WX    TMP DP  RH WIND       PRES   REMARKS
BIG PINEY      FAIR      70  50  49 SW7       30.36S
PINEDALE       MOCLDY    75  45  33 E5        30.35S
DUBOIS         MOCLDY    72  39  30 CALM      30.33S
LANDER         FAIR      75  49  39 CALM      30.26F
RIVERTON       FAIR      76  51  41 VRB5      30.26S
CASPER         FAIR      70  58  65 VRB6      30.27F
DOUGLAS        PTSUNNY   69  57  65 SE9       30.29F

$$
WYZ021-027>030-104>119-262000-
SOUTHERN WYOMING

CITY           SKY/WX    TMP DP  RH WIND       PRES   REMARKS
EVANSTON       LGT RAIN  67  55  65 W12       30.37S
KEMMERER         N/A     63  55  77 CALM      30.39F
FORT BRIDGER   CLOUDY    72  51  47 W3        30.39R
ROCK SPRINGS   CLOUDY    74  50  42 VRB3      30.33F
RAWLINS        FAIR      72  53  51 SW5       30.34F
SARATOGA       MOCLDY    72  54  53 N8        30.36S
LARAMIE        CLOUDY    69  53  56 N6        30.36S
CHEYENNE       PTSUNNY   68  58  70 NE12G21   30.32S
TORRINGTON     FAIR      77  52  41 NE15      30.21F
PINE BLUFFS    MOCLDY    75  57  53 N14       30.26S

$$




USA.gov is the U.S. government's official web portal to all federal, state and local government web resources and services.